Location: B?dimalle
(17.1788°N, 80.5377°E)
Time: 10:23:43
(UTC+00:00)

Tiros 1 despin weight - Pass Details

Date: 18 February 2026
Orbit: 556 x 593 km, 48.2° (Epoch: 10 March)

Event Time Altitude Azimuth Distance (km) Brightness Sun altitude
Rises 07:12:11 0° 216° (SW) 2,763 ? 60.8°
Reaches altitude 10° 07:14:28 10° 213° (SSW) 1,860 ? 60.7°
Maximum altitude 07:18:41 66° 131° (SE) 614 ? 60.5°
Drops below altitude 10° 07:22:51 10° 49° (NE) 1,841 ? 60.2°
Sets 07:25:06 0° 46° (NE) 2,732 ? 60.1°
